| time (UTC) | temp F | wind direction | speed MPH | gust MPH | rain 1hr in | rain 24hr in | rain mn in | humidity % | barometer mb |
| 20260503203505 | 73 | 341 | 4.0 | 9.0 | 0.00 | 0.00 | 0.00 | 36 | 1017.9 |
| 20260503202510 | 74 | 241 | 2.0 | 5.0 | 0.00 | 0.00 | 0.00 | 38 | 1017.9 |
| 20260503202005 | 74 | 232 | 2.0 | 5.0 | 0.00 | 0.00 | 0.00 | 36 | 1017.8 |
| 20260503201501 | 74 | 161 | 1.0 | 5.0 | 0.00 | 0.01 | 0.00 | 36 | 1017.9 |
| 20260503201002 | 74 | 162 | 1.0 | 5.0 | 0.00 | 0.01 | 0.00 | 41 | 1018.0 |
| 20260503200501 | 73 | 167 | 1.0 | 4.0 | 0.00 | 0.01 | 0.00 | 36 | 1018.0 |
| 20260503200001 | 73 | 237 | 3.0 | 8.0 | 0.00 | 0.01 | 0.00 | 37 | 1018.0 |
| 20260503195502 | 73 | 248 | 3.0 | 8.0 | 0.00 | 0.01 | 0.00 | 37 | 1018.2 |
| 20260503195001 | 73 | 250 | 3.0 | 6.0 | 0.00 | 0.01 | 0.00 | 37 | 1018.3 |
| 20260503194504 | 73 | 23 | 3.0 | 10.0 | 0.00 | 0.01 | 0.00 | 39 | 1018.4 |
| 20260503194001 | 73 | 242 | 5.0 | 13.0 | 0.00 | 0.01 | 0.00 | 38 | 1018.5 |
| 20260503193501 | 73 | 233 | 5.0 | 13.0 | 0.00 | 0.01 | 0.00 | 38 | 1018.5 |
| 20260503193005 | 72 | 324 | 4.0 | 9.0 | 0.00 | 0.01 | 0.00 | 37 | 1018.7 |
| 20260503192508 | 73 | 262 | 5.0 | 10.0 | 0.00 | 0.01 | 0.00 | 37 | 1018.9 |
| 20260503192009 | 73 | 268 | 5.0 | 13.0 | 0.00 | 0.01 | 0.00 | 39 | 1018.9 |
| 20260503191508 | 73 | 219 | 5.0 | 13.0 | 0.00 | 0.01 | 0.00 | 39 | 1019.0 |
| 20260503191006 | 73 | 191 | 4.0 | 9.0 | 0.00 | 0.01 | 0.00 | 37 | 1019.0 |
| 20260503190501 | 72 | 218 | 3.0 | 9.0 | 0.00 | 0.01 | 0.00 | 38 | 1019.1 |
| 20260503190003 | 73 | 168 | 3.0 | 7.0 | 0.00 | 0.01 | 0.00 | 41 | 1019.1 |
| 20260503185454 | 72 | 189 | 2.0 | 6.0 | 0.00 | 0.01 | 0.00 | 41 | 1019.2 |
| 20260503184950 | 73 | 200 | 2.0 | 9.0 | 0.00 | 0.01 | 0.00 | 42 | 1019.3 |
| 20260503184448 | 72 | 188 | 3.0 | 9.0 | 0.00 | 0.01 | 0.00 | 39 | 1019.4 |
| 20260503183943 | 71 | 198 | 5.0 | 9.0 | 0.00 | 0.01 | 0.00 | 39 | 1019.5 |
| 20260503183441 | 72 | 171 | 4.0 | 9.0 | 0.00 | 0.01 | 0.00 | 40 | 1019.6 |
| 20260503182444 | 72 | 310 | 2.0 | 5.0 | 0.00 | 0.01 | 0.00 | 40 | 1019.6 |
| 20260503181943 | 71 | 56 | 2.0 | 5.0 | 0.00 | 0.01 | 0.00 | 41 | 1019.6 |
| 20260503181440 | 71 | 217 | 3.0 | 9.0 | 0.00 | 0.01 | 0.00 | 42 | 1019.7 |
| 20260503180935 | 71 | 320 | 4.0 | 9.0 | 0.00 | 0.01 | 0.00 | 37 | 1019.8 |
| 20260503180434 | 71 | 250 | 5.0 | 11.0 | 0.00 | 0.01 | 0.00 | 38 | 1019.8 |
| 20260503175942 | 71 | 251 | 6.0 | 11.0 | 0.00 | 0.01 | 0.00 | 38 | 1019.8 |
| 20260503175442 | 71 | 257 | 5.0 | 11.0 | 0.00 | 0.01 | 0.00 | 43 | 1019.8 |
| 20260503174938 | 71 | 342 | 5.0 | 11.0 | 0.00 | 0.02 | 0.00 | 40 | 1019.9 |
| 20260503174437 | 71 | 310 | 3.0 | 10.0 | 0.00 | 0.03 | 0.00 | 41 | 1020.0 |
| 20260503173429 | 71 | 255 | 2.0 | 7.0 | 0.00 | 0.03 | 0.00 | 42 | 1020.1 |
| 20260503172929 | 71 | 210 | 3.0 | 8.0 | 0.00 | 0.03 | 0.00 | 44 | 1020.1 |
| 20260503172429 | 70 | 212 | 3.0 | 8.0 | 0.00 | 0.03 | 0.00 | 43 | 1020.3 |
| 20260503171928 | 71 | 235 | 4.0 | 10.0 | 0.00 | 0.03 | 0.00 | 41 | 1020.4 |
| 20260503171431 | 70 | 260 | 5.0 | 10.0 | 0.00 | 0.03 | 0.00 | 41 | 1020.5 |
| 20260503170929 | 70 | 280 | 4.0 | 10.0 | 0.00 | 0.04 | 0.00 | 39 | 1020.5 |
| 20260503150931 | 65 | 54 | 2.0 | 5.0 | 0.00 | 0.09 | 0.00 | 77 | 1020.8 |
| 20260503150433 | 64 | 40 | 2.0 | 5.0 | 0.00 | 0.09 | 0.00 | 76 | 1020.9 |
| 20260503131403 | 56 | 8 | 3.0 | 4.0 | 0.00 | 0.22 | 0.00 | 96 | 1020.6 |
| 20260503130911 | 56 | 351 | 2.0 | 4.0 | 0.00 | 0.22 | 0.00 | 96 | 1020.6 |
| 20260503130410 | 56 | 346 | 3.0 | 5.0 | 0.00 | 0.23 | 0.00 | 96 | 1020.7 |
| 20260503081254 | 55 | 31 | 0.0 | 0.0 | 0.00 | 1.29 | 0.00 | 96 | 1017.8 |
| 20260503080756 | 55 | 31 | 0.0 | 0.0 | 0.00 | 1.32 | 0.00 | 96 | 1017.8 |
| 20260503080252 | 55 | 31 | 0.0 | 0.0 | 0.00 | 1.34 | 0.00 | 96 | 1017.7 |
| 20260503072746 | 55 | 31 | 0.0 | 0.0 | 0.00 | 1.45 | 0.00 | 96 | 1017.4 |
| 20260503071744 | 55 | 31 | 0.0 | 0.0 | 0.00 | 1.47 | 0.00 | 96 | 1017.4 |
| 20260503071241 | 54 | 31 | 0.0 | 0.0 | 0.00 | 1.49 | 0.00 | 96 | 1017.3 |
| 20260503070738 | 54 | 31 | 0.0 | 0.0 | 0.00 | 1.49 | 0.00 | 96 | 1017.2 |
| 20260503070234 | 54 | 31 | 0.0 | 0.0 | 0.00 | 1.50 | 0.00 | 96 | 1017.2 |
| 20260503060201 | 53 | 31 | 0.0 | 0.0 | 0.00 | 1.64 | 0.00 | 95 | 1017.1 |
| 20260503035713 | 54 | 31 | 0.0 | 0.0 | 0.00 | 1.66 | 1.66 | 94 | 1016.4 |
| 20260503035203 | 55 | 31 | 0.0 | 0.0 | 0.00 | 1.66 | 1.66 | 95 | 1016.3 |
| 20260503034701 | 54 | 31 | 0.0 | 0.0 | 0.00 | 1.66 | 1.66 | 95 | 1016.1 |
| 20260503034202 | 55 | 31 | 0.0 | 0.0 | 0.00 | 1.66 | 1.66 | 95 | 1016.1 |
| 20260503033708 | 55 | 31 | 0.0 | 0.0 | 0.00 | 1.66 | 1.66 | 95 | 1016.0 |
| 20260503033202 | 55 | 31 | 0.0 | 0.0 | 0.00 | 1.66 | 1.66 | 95 | 1015.9 |
| 20260503032702 | 55 | 31 | 0.0 | 0.0 | 0.00 | 1.66 | 1.66 | 94 | 1015.9 |
| 20260503031701 | 55 | 31 | 0.0 | 0.0 | 0.00 | 1.66 | 1.66 | 94 | 1015.8 |
| 20260503031201 | 55 | 31 | 0.0 | 0.0 | 0.00 | 1.66 | 1.66 | 94 | 1015.7 |
| 20260503030702 | 55 | 31 | 0.0 | 0.0 | 0.00 | 1.66 | 1.66 | 94 | 1015.7 |
| 20260503030201 | 55 | 31 | 0.0 | 0.0 | 0.00 | 1.66 | 1.66 | 94 | 1015.5 |
| 20260503025206 | 55 | 31 | 0.0 | 0.0 | 0.00 | 1.66 | 1.66 | 94 | 1015.4 |
| 20260503024715 | 56 | 31 | 0.0 | 0.0 | 0.00 | 1.66 | 1.66 | 94 | 1015.4 |
| 20260503024222 | 56 | 31 | 0.0 | 0.0 | 0.00 | 1.66 | 1.66 | 94 | 1015.3 |
| 20260503023208 | 56 | 31 | 0.0 | 0.0 | 0.00 | 1.66 | 1.66 | 94 | 1015.3 |
| 20260503022720 | 56 | 31 | 0.0 | 0.0 | 0.00 | 1.66 | 1.66 | 94 | 1015.2 |
| 20260503022201 | 56 | 31 | 0.0 | 0.0 | 0.00 | 1.66 | 1.66 | 94 | 1015.2 |
| 20260503021201 | 57 | 31 | 0.0 | 0.0 | 0.00 | 1.67 | 1.66 | 94 | 1015.1 |
| 20260503020656 | 57 | 31 | 0.0 | 0.0 | 0.00 | 1.67 | 1.66 | 94 | 1015.1 |
| 20260503020156 | 57 | 31 | 0.0 | 0.0 | 0.00 | 1.67 | 1.66 | 94 | 1015.0 |
| 20260503015654 | 57 | 31 | 0.0 | 0.0 | 0.00 | 1.67 | 1.66 | 93 | 1014.9 |
| 20260503015154 | 57 | 31 | 0.0 | 0.0 | 0.00 | 1.67 | 1.66 | 93 | 1014.8 |
| 20260503014655 | 57 | 31 | 0.0 | 0.0 | 0.00 | 1.67 | 1.66 | 94 | 1014.7 |
| 20260503013656 | 58 | 31 | 0.0 | 0.0 | 0.00 | 1.67 | 1.66 | 93 | 1014.6 |
| 20260503012158 | 58 | 31 | 0.0 | 0.0 | 0.00 | 1.67 | 1.66 | 93 | 1014.3 |
| 20260503011156 | 58 | 31 | 0.0 | 0.0 | 0.00 | 1.67 | 1.66 | 93 | 1014.2 |
| 20260503010658 | 58 | 31 | 0.0 | 0.0 | 0.00 | 1.67 | 1.66 | 93 | 1014.2 |
| 20260503005656 | 59 | 31 | 0.0 | 0.0 | 0.00 | 1.67 | 1.66 | 93 | 1014.0 |
| 20260503005148 | 59 | 31 | 0.0 | 0.0 | 0.00 | 1.67 | 1.66 | 92 | 1014.0 |
| 20260503004144 | 59 | 31 | 0.0 | 0.0 | 0.00 | 1.67 | 1.66 | 92 | 1013.8 |
| 20260503003640 | 60 | 31 | 0.0 | 0.0 | 0.00 | 1.67 | 1.66 | 92 | 1013.6 |
| 20260503003141 | 60 | 31 | 0.0 | 0.0 | 0.00 | 1.67 | 1.66 | 92 | 1013.6 |
| 20260503002641 | 60 | 31 | 0.0 | 0.0 | 0.00 | 1.67 | 1.66 | 92 | 1013.5 |
| 20260503002138 | 60 | 31 | 0.0 | 0.0 | 0.00 | 1.67 | 1.66 | 92 | 1013.5 |
| 20260503001637 | 60 | 31 | 0.0 | 0.0 | 0.00 | 1.67 | 1.66 | 91 | 1013.5 |
| 20260503001132 | 61 | 31 | 0.0 | 0.0 | 0.00 | 1.67 | 1.66 | 91 | 1013.4 |
| 20260503000635 | 61 | 31 | 0.0 | 0.0 | 0.00 | 1.67 | 1.66 | 91 | 1013.4 |
| 20260503000132 | 61 | 31 | 0.0 | 0.0 | 0.00 | 1.67 | 1.66 | 91 | 1013.3 |
| 20260502235640 | 62 | 31 | 0.0 | 0.0 | 0.00 | 1.67 | 1.66 | 91 | 1013.2 |
| 20260502235132 | 62 | 31 | 0.0 | 0.0 | 0.00 | 1.67 | 1.66 | 91 | 1013.1 |
| 20260502234633 | 62 | 31 | 0.0 | 2.0 | 0.00 | 1.67 | 1.66 | 91 | 1013.1 |
| 20260502234133 | 62 | 31 | 1.0 | 2.0 | 0.00 | 1.67 | 1.66 | 90 | 1013.0 |
| 20260502233131 | 62 | 31 | 1.0 | 3.0 | 0.00 | 1.67 | 1.66 | 91 | 1012.7 |
| 20260502232632 | 62 | 31 | 1.0 | 3.0 | 0.00 | 1.67 | 1.66 | 91 | 1012.6 |
| 20260502232135 | 62 | 30 | 1.0 | 3.0 | 0.00 | 1.67 | 1.66 | 91 | 1012.6 |
| 20260502231634 | 62 | 30 | 2.0 | 5.0 | 0.00 | 1.67 | 1.66 | 91 | 1012.5 |
| 20260502230633 | 62 | 346 | 3.0 | 6.0 | 0.00 | 1.67 | 1.66 | 91 | 1012.5 |
| 20260502230132 | 62 | 346 | 3.0 | 6.0 | 0.00 | 1.67 | 1.66 | 92 | 1012.5 |
| 20260502225633 | 62 | 341 | 3.0 | 6.0 | 0.00 | 1.67 | 1.66 | 92 | 1012.5 |
| 20260502225131 | 62 | 356 | 2.0 | 5.0 | 0.00 | 1.67 | 1.66 | 93 | 1012.5 |
| 20260502224633 | 62 | 7 | 2.0 | 5.0 | 0.00 | 1.67 | 1.66 | 94 | 1012.6 |
| 20260502224133 | 61 | 41 | 2.0 | 4.0 | 0.00 | 1.67 | 1.66 | 93 | 1012.5 |
| 20260502223635 | 61 | 41 | 2.0 | 4.0 | 0.00 | 1.67 | 1.66 | 94 | 1012.5 |
| 20260502223129 | 61 | 43 | 2.0 | 3.0 | 0.00 | 1.67 | 1.66 | 93 | 1012.5 |
| 20260502222631 | 61 | 43 | 2.0 | 4.0 | 0.00 | 1.67 | 1.66 | 94 | 1012.5 |
| 20260502222131 | 61 | 43 | 2.0 | 5.0 | 0.00 | 1.67 | 1.66 | 94 | 1012.5 |
| 20260502221633 | 61 | 351 | 2.0 | 5.0 | 0.00 | 1.67 | 1.66 | 94 | 1012.6 |
| 20260502221135 | 61 | 46 | 2.0 | 4.0 | 0.00 | 1.67 | 1.66 | 94 | 1012.6 |
| 20260502220631 | 61 | 46 | 2.0 | 6.0 | 0.00 | 1.67 | 1.66 | 94 | 1012.6 |
| 20260502220133 | 61 | 52 | 2.0 | 6.0 | 0.00 | 1.67 | 1.66 | 94 | 1012.4 |
| 20260502215631 | 61 | 24 | 3.0 | 9.0 | 0.00 | 1.67 | 1.66 | 94 | 1012.4 |
| 20260502215130 | 61 | 30 | 4.0 | 9.0 | 0.00 | 1.67 | 1.66 | 94 | 1012.2 |
| 20260502214629 | 60 | 0 | 4.0 | 10.0 | 0.00 | 1.67 | 1.66 | 94 | 1012.1 |
| 20260502214125 | 61 | 55 | 4.0 | 10.0 | 0.00 | 1.67 | 1.66 | 94 | 1012.0 |
| 20260502212609 | 60 | 315 | 4.0 | 11.0 | 0.00 | 1.67 | 1.66 | 93 | 1012.0 |
| 20260502211612 | 60 | 0 | 5.0 | 11.0 | 0.01 | 1.67 | 1.66 | 93 | 1012.0 |
| 20260502210607 | 61 | 21 | 5.0 | 14.0 | 0.01 | 1.67 | 1.66 | 93 | 1011.8 |
| 20260502210108 | 61 | 19 | 5.0 | 10.0 | 0.01 | 1.67 | 1.66 | 94 | 1011.7 |
| 20260502205607 | 61 | 346 | 6.0 | 11.0 | 0.01 | 1.66 | 1.66 | 94 | 1011.7 |
| 20260502205106 | 61 | 339 | 5.0 | 11.0 | 0.01 | 1.66 | 1.66 | 94 | 1011.7 |
| 20260502204605 | 61 | 0 | 5.0 | 12.0 | 0.01 | 1.66 | 1.66 | 94 | 1011.7 |